H1 CPF 1 NER 2021 1 23 9 5231 glonass140 H2 1903001 9140 44299 2021 1 23 0 0 0 2021 1 26 23 45 0 900 1 1 0 0 0 H9 10 0 59237 0.00000 0 7582365.899 7900965.480 -23015595.433 10 0 59237 900.00000 0 5583086.592 9908154.292 -22807858.942 10 0 59237 1800.00000 0 3769399.734 12015409.888 -22156056.657 10 0 59237 2700.00000 0 2178130.597 14163857.803 -21072798.768 10 0 59237 3600.00000 0 834689.473 16289903.318 -19579120.836 10 0 59237 4500.00000 0 -247774.393 18327760.669 -17704076.813 10 0 59237 5400.00000 0 -1068692.313 20212093.234 -15484172.859 10 0 59237 6300.00000 0 -1639856.276 21880653.744 -12962652.797 10 0 59237 7200.00000 0 -1984669.990 23276813.084 -10188649.286 10 0 59237 8100.00000 0 -2136903.865 24351870.840 -7216217.700 10 0 59237 9000.00000 0 -2139008.153 25067049.893 -4103272.264 10 0 59237 9900.00000 0 -2040057.356 25395090.706 -910446.286 10 0 59237 10800.00000 0 -1893414.842 25321378.136 2300100.156 10 0 59237 11700.00000 0 -1754218.398 24844553.603 5465900.582 10 0 59237 12600.00000 0 -1676794.887 23976587.481 8525405.484 10 0 59237 13500.00000 0 -1712114.899 22742309.673 11419183.975 10 0 59237 14400.00000 0 -1905396.131 21178419.229 14091079.666 10 0 59237 15300.00000 0 -2293957.431 19332015.941 16489298.010 10 0 59237 16200.00000 0 -2905414.361 17258716.593 18567404.268 10 0 59237 17100.00000 0 -3756292.260 15020435.664 20285213.407 10 0 59237 18000.00000 0 -4851114.865 12682923.770 21609555.688 10 0 59237 18900.00000 0 -6182006.388 10313166.597 22514904.488 10 0 59237 19800.00000 0 -7728823.473 7976752.116 22983855.705 10 0 59237 20700.00000 0 -9459811.337 5735314.705 23007450.879 10 0 59237 21600.00000 0 -11332756.901 3644160.904 22585339.121 10 0 59237 22500.00000 0 -13296591.311 1750173.626 21725775.718 10 0 59237 23400.00000 0 -15293375.839 90080.005 20445458.046 10 0 59237 24300.00000 0 -17260589.575 -1310847.176 18769202.176 10 0 59237 25200.00000 0 -19133624.925 -2439602.327 16729466.160 10 0 59237 26100.00000 0 -20848388.259 -3295741.883 14365728.629 10 0 59237 27000.00000 0 -22343898.603 -3891150.100 11723733.840 10 0 59237 27900.00000 0 -23564777.063 -4249286.547 8854616.652 10 0 59237 28800.00000 0 -24463523.755 -4403947.264 5813923.316 10 0 59237 29700.00000 0 -25002487.491 -4397591.834 2660545.960 10 0 59237 30600.00000 0 -25155445.772 -4279306.655 -544409.571 10 0 59237 31500.00000 0 -24908728.461 -4102490.070 -3738801.151 10 0 59237 32400.00000 0 -24261837.271 -3922356.828 -6860650.814 10 0 59237 33300.00000 0 -23227533.992 -3793367.242 -9849345.114 10 0 59237 34200.00000 0 -21831392.470 -3766689.833 -12646812.047 10 0 59237 35100.00000 0 -20110831.762 -3887805.185 -15198651.564 10 0 59237 36000.00000 0 -18113669.594 -4194353.096 -17455197.417 10 0 59237 36900.00000 0 -15896255.506 -4714315.104 -19372489.262 10 0 59237 37800.00000 0 -13521260.718 -5464610.588 -20913135.689 10 0 59237 38700.00000 0 -11055216.253 -6450167.408 -22047050.957 10 0 59237 39600.00000 0 -8565901.654 -7663508.100 -22752050.462 10 0 59237 40500.00000 0 -6119692.949 -9084871.039 -23014292.859 10 0 59237 41400.00000 0 -3778980.341 -10682863.394 -22828559.572 10 0 59237 42300.00000 0 -1599763.482 -12415620.102 -22198365.570 10 0 59237 43200.00000 0 370475.313 -14232421.670 -21135898.612 10 0 59237 44100.00000 0 2094531.081 -16075703.902 -19661787.459 10 0 59237 45000.00000 0 3546795.924 -17883375.766 -17804703.041 10 0 59237 45900.00000 0 4714083.573 -19591348.233 -15600799.954 10 0 59237 46800.00000 0 5595924.878 -21136167.637 -13093008.951 10 0 59237 47700.00000 0 6204322.737 -22457642.256 -10330194.404 10 0 59237 48600.00000 0 6562978.148 -23501350.908 -7366193.545 10 0 59237 49500.00000 0 6706021.624 -24220927.179 -4258756.931 10 0 59237 50400.00000 0 6676305.389 -24580022.370 -1068411.869 10 0 59237 51300.00000 0 6523330.529 -24553863.989 2142727.900 10 0 59237 52200.00000 0 6300898.844 -24130344.004 5312181.811 10 0 59237 53100.00000 0 6064590.603 -23310591.204 8378326.338 10 0 59237 54000.00000 0 5869176.634 -22109004.154 11281598.327 10 0 59237 54900.00000 0 5766075.465 -20552744.179 13965653.736 10 0 59237 55800.00000 0 5800963.858 -18680710.689 16378458.901 10 0 59237 56700.00000 0 6011642.019 -16542042.811 18473293.397 10 0 59237 57600.00000 0 6426243.488 -14194210.858 20209645.678 10 0 59237 58500.00000 0 7061864.752 -11700778.002 21553985.135 10 0 59237 59400.00000 0 7923671.647 -9128925.567 22480396.989 10 0 59237 60300.00000 0 9004519.530 -6546844.627 22971069.183 10 0 59237 61200.00000 0 10285102.669 -4021101.527 23016623.331 10 0 59237 62100.00000 0 11734626.398 -1614085.410 22616284.630 10 0 59237 63000.00000 0 13311974.107 618358.048 21777888.473 10 0 59237 63900.00000 0 14967320.746 2629010.347 20517724.274 10 0 59237 64800.00000 0 16644126.347 4380996.895 18860219.743 10 0 59237 65700.00000 0 18281427.423 5849067.417 16837471.481 10 0 59237 66600.00000 0 19816331.788 7020388.504 14488630.401 10 0 59237 67500.00000 0 21186613.838 7894816.797 11859152.978 10 0 59237 68400.00000 0 22333302.957 8484642.532 8999931.730 10 0 59237 69300.00000 0 23203157.570 8813814.882 5966320.681 10 0 59237 70200.00000 0 23750921.813 8916682.009 2817073.613 10 0 59237 71100.00000 0 23941270.309 8836298.844 -386785.308 10 0 59237 72000.00000 0 23750359.141 8622373.701 -3583137.260 10 0 59237 72900.00000 0 23166917.201 8328940.129 -6709968.564 10 0 59237 73800.00000 0 22192830.937 8011852.086 -9706571.554 10 0 59237 74700.00000 0 20843196.581 7726208.198 -12514723.140 10 0 59237 75600.00000 0 19145836.069 7523814.155 -15079818.071 10 0 59237 76500.00000 0 17140295.269 7450790.942 -17351934.623 10 0 59237 77400.00000 0 14876364.929 7545430.727 -19286811.531 10 0 59237 78300.00000 0 12412184.763 7836392.045 -20846716.796 10 0 59237 79200.00000 0 9812008.678 8341311.766 -22001190.960 10 0 59237 80100.00000 0 7143723.558 9065893.944 -22727649.817 10 0 59237 81000.00000 0 4476224.457 10003515.582 -23011834.300 10 0 59237 81900.00000 0 1876755.182 11135367.627 -22848098.132 10 0 59237 82800.00000 0 -591674.939 12431126.771 -22239526.988 10 0 59237 83700.00000 0 -2872690.515 13850131.209 -21197886.195 10 0 59237 84600.00000 0 -4918665.697 15343011.936 -19743397.302 10 0 59237 85500.00000 0 -6692467.560 16853711.614 -17904347.360 10 0 59238 0.00000 0 -8168754.697 18321806.363 -15716538.144 10 0 59238 900.00000 0 -9334776.959 19685032.524 -13222585.519 10 0 59238 1800.00000 0 -10190644.040 20881911.738 -10471083.548 10 0 59238 2700.00000 0 -10749051.766 21854362.302 -7515648.934 10 0 59238 3600.00000 0 -11034480.377 22550186.726 -4413865.943 10 0 59238 4500.00000 0 -11081899.325 22925328.879 -1226153.079 10 0 59238 5400.00000 0 -10935035.794 22945805.137 1985425.170 10 0 59238 6300.00000 0 -10644282.004 22589227.465 5158377.130 10 0 59238 7200.00000 0 -10264331.848 21845854.020 8231008.233 10 0 59238 8100.00000 0 -9851648.609 20719123.197 11143625.999 10 0 59238 9000.00000 0 -9461872.346 19225649.088 13839701.578 10 0 59238 9900.00000 0 -9147277.513 17394679.262 16266964.896 10 0 59238 10800.00000 0 -8954388.762 15267038.382 18378412.378 10 0 59238 11700.00000 0 -8921855.507 12893602.576 20133208.294 10 0 59238 12600.00000 0 -9078674.466 10333368.882 21497463.247 10 0 59238 13500.00000 0 -9442834.263 7651200.415 22444876.084 10 0 59238 14400.00000 0 -10020438.242 4915340.851 22957228.253 10 0 59238 15300.00000 0 -10805341.483 2194800.864 23024722.511 10 0 59238 16200.00000 0 -11779316.612 -443276.182 22646160.771 10 0 59238 17100.00000 0 -12912741.135 -2936161.625 21828958.685 10 0 59238 18000.00000 0 -14165777.561 -5227898.095 20588997.342 10 0 59238 18900.00000 0 -15489997.358 -7271369.602 18950315.192 10 0 59238 19800.00000 0 -16830381.607 -9030001.206 16944645.955 10 0 59238 20700.00000 0 -18127615.624 -10479019.422 14610810.883 10 0 59238 21600.00000 0 -19320582.669 -11606222.584 11993976.281 10 0 59238 22500.00000 0 -20348953.398 -12412230.276 9144789.548 10 0 59238 23400.00000 0 -21155763.444 -12910202.316 6118409.403 10 0 59238 24300.00000 0 -21689871.664 -13125039.607 2973447.983 10 0 59238 25200.00000 0 -21908196.089 -13092100.607 -229155.668 10 0 59238 26100.00000 0 -21777633.460 -12855487.308 -3427309.539 10 0 59238 27000.00000 0 -21276581.043 -12465972.745 -6558967.760 10 0 59238 27900.00000 0 -20395995.677 -11978657.164 -9563331.929 10 0 59238 28800.00000 0 -19139944.111 -11450451.567 -12382031.250 10 0 59238 29700.00000 0 -17525619.847 -10937494.885 -14960258.485 10 0 59238 30600.00000 0 -15582823.865 -10492614.031 -17247839.388 10 0 59238 31500.00000 0 -13352929.184 -10162934.527 -19200214.383 10 0 59238 32400.00000 0 -10887370.787 -9987743.293 -20779313.016 10 0 59238 33300.00000 0 -8245722.396 -9996694.723 -21954303.707 10 0 59238 34200.00000 0 -5493439.165 -10208436.868 -22702203.629 10 0 59238 35100.00000 0 -2699359.354 -10629716.929 -23008336.327 10 0 59238 36000.00000 0 66931.596 -11255005.099 -22866627.535 10 0 59238 36900.00000 0 2737765.123 -12066653.909 -22279732.769 10 0 59238 37800.00000 0 5249970.957 -13035587.537 -21258993.536 10 0 59238 38700.00000 0 7547268.390 -14122492.998 -19824222.353 10 0 59238 39600.00000 0 9582367.530 -15279463.651 -18003320.184 10 0 59238 40500.00000 0 11318692.922 -16452026.033 -15831733.355 10 0 59238 41400.00000 0 12731657.711 -17581464.456 -13351760.250 10 0 59238 42300.00000 0 13809435.398 -18607344.802 -10611721.478 10 0 59238 43200.00000 0 14553197.738 -19470130.216 -7665010.000 10 0 59238 44100.00000 0 14976809.973 -20113777.296 -4569040.447 10 0 59238 45000.00000 0 15105997.786 -20488202.025 -1384119.126 10 0 59238 45900.00000 0 14977022.971 -20551510.322 1827742.089 10 0 59238 46800.00000 0 14634925.747 -20271898.183 5004043.645 10 0 59238 47700.00000 0 14131410.005 -19629140.674 8083022.949 10 0 59238 48600.00000 0 13522462.791 -18615606.795 11004860.907 10 0 59238 49500.00000 0 12865810.268 -17236757.527 13712846.222 10 0 59238 50400.00000 0 12218318.842 -15511106.547 16154474.378 10 0 59238 51300.00000 0 11633451.881 -13469645.759 18282460.184 10 0 59238 52200.00000 0 11158889.478 -11154760.217 20055644.834 10 0 59238 53100.00000 0 10834411.194 -8618678.329 21439780.829 10 0 59238 54000.00000 0 10690130.139 -5921522.092 22408180.905 10 0 59238 54900.00000 0 10745151.602 -3129038.362 22942219.896 10 0 59238 55800.00000 0 11006711.388 -310104.927 23031681.226 10 0 59238 56700.00000 0 11469828.986 2465886.168 22674942.734 10 0 59238 57600.00000 0 12117489.242 5131660.968 21878999.262 10 0 59238 58500.00000 0 12921344.445 7624604.140 20659322.270 10 0 59238 59400.00000 0 13842907.321 9889104.314 19039559.450 10 0 59238 60300.00000 0 14835185.291 11878608.926 17051079.967 10 0 59238 61200.00000 0 15844688.137 13557305.007 14732373.594 10 0 59238 62100.00000 0 16813725.821 14901357.728 12128314.501 10 0 59238 63000.00000 0 17682901.059 15899656.457 9289302.860 10 0 59238 63900.00000 0 18393692.876 16554038.138 6270299.853 10 0 59238 64800.00000 0 18891023.390 16878979.302 3129773.625 10 0 59238 65700.00000 0 19125700.247 16900769.918 -71424.336 10 0 59238 66600.00000 0 19056631.977 16656203.718 -3271231.291 10 0 59238 67500.00000 0 18652722.565 16190839.940 -6407571.623 10 0 59238 68400.00000 0 17894364.566 15556909.330 -9419558.537 10 0 59238 69300.00000 0 16774466.596 14810952.397 -12248675.733 10 0 59238 70200.00000 0 15298970.290 14011289.295 -14839915.995 10 0 59238 71100.00000 0 13486833.022 13215428.013 -17142854.359 10 0 59238 72000.00000 0 11369475.087 12477520.367 -19112634.548 10 0 59238 72900.00000 0 8989712.405 11845973.484 -20710849.083 10 0 59238 73800.00000 0 6400217.427 11361318.062 -21906295.532 10 0 59238 74700.00000 0 3661570.921 11054424.077 -22675593.549 10 0 59238 75600.00000 0 839984.475 10945140.036 -23003650.220 10 0 59238 76500.00000 0 -1995212.412 11041414.078 -22883963.989 10 0 59238 77400.00000 0 -4774216.542 11338934.967 -22318760.616 10 0 59238 78300.00000 0 -7429416.862 11821308.979 -21318957.841 10 0 59238 79200.00000 0 -9897970.983 12460765.961 -19903958.778 10 0 59238 80100.00000 0 -12124184.879 13219365.285 -18101277.514 10 0 59238 81000.00000 0 -14061596.428 14050650.976 -15946003.762 10 0 59238 81900.00000 0 -15674675.796 14901686.028 -13480116.731 10 0 59238 82800.00000 0 -16940071.616 15715379.443 -10751661.721 10 0 59238 83700.00000 0 -17847351.318 16433006.857 -7813805.796 10 0 59238 84600.00000 0 -18399205.378 16996817.141 -4723791.607 10 0 59238 85500.00000 0 -18611108.111 17352613.546 -1541810.788 10 0 59239 0.00000 0 -18510450.933 17452199.115 1670179.902 10 0 59239 900.00000 0 -18135186.445 17255581.529 4849675.807 10 0 59239 1800.00000 0 -17532042.617 16732844.526 7934848.949 10 0 59239 2700.00000 0 -16754384.319 15865604.362 10865756.345 10 0 59239 3600.00000 0 -15859814.354 14647991.816 13585506.972 10 0 59239 4500.00000 0 -14907616.559 13087117.019 16041364.546 10 0 59239 5400.00000 0 -13956149.836 11202998.508 18185764.839 10 0 59239 6300.00000 0 -13060303.225 9027959.617 19977228.382 10 0 59239 7200.00000 0 -12269119.041 6605517.909 21381151.764 10 0 59239 8100.00000 0 -11623683.265 3988814.115 22370463.544 10 0 59239 9000.00000 0 -11155370.728 1238645.876 22926133.538 10 0 59239 9900.00000 0 -10884517.385 -1578812.353 23037527.070 10 0 59239 10800.00000 0 -10819573.924 -4394509.516 22702598.729 10 0 59239 11700.00000 0 -10956774.894 -7139135.828 21927922.939 10 0 59239 12600.00000 0 -11280336.181 -9745751.313 20728561.458 10 0 59239 13500.00000 0 -11763171.888 -12152317.830 19127770.681 10 0 59239 14400.00000 0 -12368100.363 -14304031.496 17156554.209 10 0 59239 15300.00000 0 -13049488.944 -16155360.399 14853068.873 10 0 59239 16200.00000 0 -13755268.949 -17671704.611 12261894.835 10 0 59239 17100.00000 0 -14429237.027 -18830610.764 9433182.816 10 0 59239 18000.00000 0 -15013546.938 -19622491.494 6421693.922 10 0 59239 18900.00000 0 -15451287.678 -20050820.391 3285749.526 10 0 59239 19800.00000 0 -15689039.930 -20131794.603 86110.590 10 0 59239 20700.00000 0 -15679303.299 -19893479.178 -3115192.542 10 0 59239 21600.00000 0 -15382691.805 -19374468.906 -6256057.738 10 0 59239 22500.00000 0 -14769804.379 -18622123.518 -9275513.121 10 0 59239 23400.00000 0 -13822690.383 -17690450.112 -12114900.216 10 0 59239 24300.00000 0 -12535846.865 -16637721.603 -14719015.131 10 0 59239 25200.00000 0 -10916703.649 -15523931.269 -17037185.367 10 0 59239 26100.00000 0 -8985573.780 -14408190.532 -19024260.885 10 0 59239 27000.00000 0 -6775069.147 -13346179.685 -20641499.803 10 0 59239 27900.00000 0 -4329003.543 -12387759.210 -21857331.010 10 0 59239 28800.00000 0 -1700827.074 -11574842.708 -22647978.317 10 0 59239 29700.00000 0 1048344.480 -10939621.579 -22997933.458 10 0 59239 30600.00000 0 3852024.582 -10503216.818 -22900268.133 10 0 59239 31500.00000 0 6640880.402 -10274815.368 -22356778.342 10 0 59239 32400.00000 0 9345382.312 -10251327.988 -21377957.544 10 0 59239 33300.00000 0 11898468.318 -10417583.528 -19982798.471 10 0 59239 34200.00000 0 14238112.285 -10747051.700 -18198426.905 10 0 59239 35100.00000 0 16309688.708 -11203063.838 -16059574.081 10 0 59239 36000.00000 0 18068035.080 -11740479.843 -13607897.747 10 0 59239 36900.00000 0 19479125.476 -12307730.249 -10891165.185 10 0 59239 37800.00000 0 20521285.419 -12849146.174 -7962314.462 10 0 59239 38700.00000 0 21185897.558 -13307477.425 -4878412.819 10 0 59239 39600.00000 0 21477569.314 -13626490.879 -1699533.541 10 0 59239 40500.00000 0 21413756.716 -13753537.820 1512425.678 10 0 59239 41400.00000 0 21023861.852 -13641980.281 4694958.621 10 0 59239 42300.00000 0 20347843.762 -13253372.716 7786175.688 10 0 59239 43200.00000 0 19434403.255 -12559305.941 10726013.401 10 0 59239 44100.00000 0 18338820.006 -11542835.043 13457404.018 10 0 59239 45000.00000 0 17120534.619 -10199430.862 15927382.046 10 0 59239 45900.00000 0 15840578.702 -8537415.094 18088106.304 10 0 59239 46800.00000 0 14558961.666 -6577860.928 19897778.254 10 0 59239 47700.00000 0 13332124.196 -4353963.623 21321439.681 10 0 59239 48600.00000 0 12210564.769 -1909907.507 22331635.606 10 0 59239 49500.00000 0 11236737.727 700723.543 22908931.019 10 0 59239 50400.00000 0 10443309.635 3416926.249 23042272.921 10 0 59239 51300.00000 0 9851845.289 6172567.229 22729192.034 10 0 59239 52200.00000 0 9471976.719 8898887.547 21975841.381 10 0 59239 53100.00000 0 9301088.526 11527119.973 20796871.712 10 0 59239 54000.00000 0 9324531.485 13991112.097 19215146.520 10 0 59239 54900.00000 0 9516354.656 16229848.281 17261301.996 10 0 59239 55800.00000 0 9840524.969 18189767.379 14973159.968 10 0 59239 56700.00000 0 10252583.116 19826781.594 12395004.334 10 0 59239 57600.00000 0 10701666.577 21107913.749 9576733.952 10 0 59239 58500.00000 0 11132815.267 22012485.706 6572907.303 10 0 59239 59400.00000 0 11489463.391 22532808.980 3441696.344 10 0 59239 60300.00000 0 11716013.048 22674348.945 243768.812 10 0 59239 61200.00000 0 11760381.349 22455355.677 -2958880.035 10 0 59239 62100.00000 0 11576413.595 21905976.615 -6104124.165 10 0 59239 63000.00000 0 11126060.169 21066887.849 -9130909.092 10 0 59239 63900.00000 0 10381224.441 19987500.970 -11980436.443 10 0 59239 64800.00000 0 9325202.367 18723820.346 -14597307.687 10 0 59239 65700.00000 0 7953651.371 17336040.475 -16930604.581 10 0 59239 66600.00000 0 6275045.686 15885984.149 -18934884.899 10 0 59239 67500.00000 0 4310596.761 14434489.020 -20571073.715 10 0 59239 68400.00000 0 2093639.697 13038852.456 -21807232.420 10 0 59239 69300.00000 0 -331490.742 11750442.306 -22619189.978 10 0 59239 70200.00000 0 -2911049.619 10612574.279 -22991023.577 10 0 59239 71100.00000 0 -5583872.164 9658745.541 -22915378.737 10 0 59239 72000.00000 0 -8283683.161 8911299.187 -22393621.968 10 0 59239 72900.00000 0 -10941630.001 8380576.115 -21435822.353 10 0 59239 73800.00000 0 -13488934.313 8064590.170 -20060561.742 10 0 59239 74700.00000 0 -15859551.610 7949240.372 -18294576.687 10 0 59239 75600.00000 0 -17992727.856 8009051.044 -16172238.630 10 0 59239 76500.00000 0 -19835345.885 8208408.179 -13734882.185 10 0 59239 77400.00000 0 -21343963.133 8503239.089 -11029994.673 10 0 59239 78300.00000 0 -22486455.231 8843063.299 -8110283.007 10 0 59239 79200.00000 0 -23243196.559 9173326.624 -5032636.716 10 0 59239 80100.00000 0 -23607728.591 9437918.199 -1857008.332 10 0 59239 81000.00000 0 -23586888.740 9581762.360 1354765.925 10 0 59239 81900.00000 0 -23200395.487 9553374.121 4540180.958 10 0 59239 82800.00000 0 -22479908.743 9307268.811 7637288.101 10 0 59239 83700.00000 0 -21467606.762 8806122.844 10585906.026 10 0 59239 84600.00000 0 -20214341.263 8022593.589 13328792.935 10 0 59239 85500.00000 0 -18777450.042 6940721.154 15812756.745 10 0 59240 0.00000 0 -17218320.399 5556852.962 17989681.790 10 0 59240 900.00000 0 -15599806.631 3880051.864 19817452.864 10 0 59240 1800.00000 0 -13983610.014 1931972.146 21260758.994 10 0 59240 2700.00000 0 -12427731.532 -253793.261 22291763.406 10 0 59240 3600.00000 0 -10984102.120 -2632865.238 22890627.681 10 0 59240 4500.00000 0 -9696489.097 -5151683.978 23045881.518 10 0 59240 5400.00000 0 -8598764.181 -7749500.874 22754632.408 10 0 59240 6300.00000 0 -7713603.758 -10360675.134 22022612.222 10 0 59240 7200.00000 0 -7051673.875 -12917180.919 20864060.561 10 0 59240 8100.00000 0 -6611332.405 -15351222.460 19301447.498 10 0 59240 9000.00000 0 -6378859.494 -17597850.282 17365040.920 10 0 59240 9900.00000 0 -6329205.753 -19597471.415 15092326.405 10 0 59240 10800.00000 0 -6427226.365 -21298150.830 12527290.025 10 0 59240 11700.00000 0 -6629349.165 -22657609.611 9719576.914 10 0 59240 12600.00000 0 -6885606.875 -23644837.493 6723540.833 10 0 59240 13500.00000 0 -7141948.330 -24241253.132 3597202.018 10 0 59240 14400.00000 0 -7342731.751 -24441363.779 401132.509 10 0 59240 15300.00000 0 -7433295.278 -24252896.647 -2802710.150 10 0 59240 16200.00000 0 -7362496.344 -23696396.030 -5952178.782 10 0 59240 17100.00000 0 -7085112.419 -22804302.466 -8986139.171 10 0 59240 18000.00000 0 -6564001.120 -21619551.859 -11845656.028 10 0 59240 18900.00000 0 -5771927.412 -20193752.650 -14475139.212 10 0 59240 19800.00000 0 -4692979.306 -18585016.878 -16823427.756 10 0 59240 20700.00000 0 -3323510.551 -16855535.685 -18844790.153 10 0 59240 21600.00000 0 -1672568.518 -15069000.655 -20499821.132 10 0 59240 22500.00000 0 238213.057 -13287978.955 -21756216.995 10 0 59240 23400.00000 0 2375254.217 -11571352.423 -22589413.883 10 0 59240 24300.00000 0 4694177.230 -9971928.067 -22983076.035 10 0 59240 25200.00000 0 7141417.259 -8534320.390 -22929423.938 10 0 59240 26100.00000 0 9656229.507 -7293194.614 -22429395.298 10 0 59240 27000.00000 0 12173010.183 -6271944.684 -21492635.068 10 0 59240 27900.00000 0 14623835.178 -5481861.648 -20137314.020 10 0 59240 28800.00000 0 16941110.656 -4921827.289 -18389778.837 10 0 59240 29700.00000 0 19060224.812 -4578545.587 -16284040.054 10 0 59240 30600.00000 0 20922089.616 -4427301.640 -13861107.544 10 0 59240 31500.00000 0 22475465.642 -4433215.202 -11168186.538 10 0 59240 32400.00000 0 23678972.170 -4552934.697 -8257750.159 10 0 59240 33300.00000 0 24502697.960 -4736698.701 -5186507.112 10 0 59240 34200.00000 0 24929344.980 -4930676.053 -2014285.685 10 0 59240 35100.00000 0 24954857.422 -5079483.856 1197143.151 10 0 59240 36000.00000 0 24588510.266 -5128775.035 4385279.306 10 0 59240 36900.00000 0 23852454.779 -5027784.409 7488118.909 10 0 59240 37800.00000 0 22780741.502 -4731724.206 10445366.481 10 0 59240 38700.00000 0 21417863.362 -4203926.766 13199609.576 10 0 59240 39600.00000 0 19816881.729 -3417643.341 15697432.569 10 0 59240 40500.00000 0 18037215.506 -2357422.842 17890448.013 10 0 59240 41400.00000 0 16142186.977 -1020012.450 19736226.068 10 0 59240 42300.00000 0 14196427.834 585257.534 21199104.793 10 0 59240 43200.00000 0 12263253.870 2436620.628 22250866.932 10 0 59240 44100.00000 0 10402117.418 4500546.647 22871271.476 10 0 59240 45000.00000 0 8666242.798 6732911.762 23048431.214 10 0 59240 45900.00000 0 7100541.811 9080617.794 22779030.333 10 0 59240 46800.00000 0 5739894.311 11483594.129 22068379.024 10 0 59240 47700.00000 0 4607863.612 13877099.998 20930304.781 10 0 59240 48600.00000 0 3715898.383 16194232.809 19386882.890 10 0 59240 49500.00000 0 3063052.623 18368539.790 17468011.201 10 0 59240 50400.00000 0 2636234.096 20336625.850 15210836.987 10 0 59240 51300.00000 0 2410969.859 22040650.660 12659046.163 10 0 59240 52200.00000 0 2352656.234 23430612.215 9862027.585 10 0 59240 53100.00000 0 2418240.623 24466322.590 6873927.560 10 0 59240 54000.00000 0 2558264.531 25118993.991 3752611.735 10 0 59240 54900.00000 0 2719182.056 25372369.012 558553.506 10 0 59240 55800.00000 0 2845856.367 25223347.561 -2646330.241 10 0 59240 56700.00000 0 2884129.003 24682083.706 -5799874.078 10 0 59240 57600.00000 0 2783353.389 23771547.592 -8840866.813 10 0 59240 58500.00000 0 2498785.190 22526569.879 -11710238.780 10 0 59240 59400.00000 0 1993727.713 20992407.830 -14352210.533 10 0 59240 60300.00000 0 1241340.596 19222892.191 -16715380.409 10 0 59240 61200.00000 0 226033.915 17278231.815 -18753729.403 10 0 59240 62100.00000 0 -1055612.939 15222567.354 -20427523.438 10 0 59240 63000.00000 0 -2594448.445 13121376.020 -21704095.037 10 0 59240 63900.00000 0 -4368881.319 11038835.885 -22558488.614 10 0 59240 64800.00000 0 -6345544.748 9035259.914 -22973956.327 10 0 59240 65700.00000 0 -8480466.733 7164707.142 -22942294.219 10 0 59240 66600.00000 0 -10720699.257 5472871.115 -22464011.464 10 0 59240 67500.00000 0 -13006339.536 3995334.072 -21548328.773 10 0 59240 68400.00000 0 -15272859.807 2756259.990 -20213005.315 10 0 59240 69300.00000 0 -17453648.650 1767581.208 -18483996.941 10 0 59240 70200.00000 0 -19482657.640 1028712.376 -16394951.913 10 0 59240 71100.00000 0 -21297042.286 526803.099 -13986553.627 10 0 59240 72000.00000 0 -22839686.015 237517.749 -11305723.201 10 0 59240 72900.00000 0 -24061500.776 126308.295 -8404697.707 10 0 59240 73800.00000 0 -24923407.124 150124.904 -5340002.609 10 0 59240 74700.00000 0 -25397910.121 259490.303 -2171339.388 10 0 59240 75600.00000 0 -25470204.766 400848.297 1039588.869 10 0 59240 76500.00000 0 -25138764.686 519085.164 4230289.813 10 0 59240 77400.00000 0 -24415389.999 560115.492 7338707.158 10 0 59240 78300.00000 0 -23324713.357 473421.462 10304434.089 10 0 59240 79200.00000 0 -21903186.179 214437.005 13069890.308 10 0 59240 80100.00000 0 -20197589.056 -253324.732 15581439.360 10 0 59240 81000.00000 0 -18263130.162 -956490.813 17790424.517 10 0 59240 81900.00000 0 -16161212.355 -1910469.978 19654103.663 10 0 59240 82800.00000 0 -13956963.189 -3118573.124 21136465.830 10 0 59240 83700.00000 0 -11716631.164 -4571649.462 22208914.841 10 0 59240 84600.00000 0 -9504956.461 -6248253.415 22850808.278 10 0 59240 85500.00000 0 -7382624.896 -8115335.132 23049842.759 99